Probability
0 0 0 0 0 0 0 0 0 0 0 0 0 0 0 0 0 0 0 0 0 0 0 0 0 0 0 0 0 0 0 0 0 0 0 0 0 0 0 0 0 0 0 0
0 0 0 0 0 0 0 0 0 0 0 0 0 0 0 0 0 0 0 0 0 0 0 0 0 0 0 0 0 0 0 0 0 0 0 0 0 0 0 0 0 0 0 0
0 0 0 0 0 0 0 0 0 0 0 0 0 0 0 0 0 0 0 0 0 0 0 0 0 0 0 0 0 0 0 0 0 0 0 0 0 0 0 0 0 0 0 0
0 0 0 0 0 0 0 0 0 0 0 0 0 0 0 0 0 0 0 0 0 0 0 0 0 0 0 0 0 0 0 0 0 0 0 0 0 0 0 0 0 0 0 0
0 0 0 0 0 0 0 0 0 0 0 0 0 0 0 0 0 0 0 0 0 0 0 0 0 0 0 0 0 0 0 0 0 0 0 0 0 0 0 0 0 0 0 0
0 0 0 0 0 0 0 0 0 0 0 0 0 0 0 0 0 0 0 0 0 0 0 0 0 0 0 0 0 0 0 0 0 0 0 0 0 0 0 0 0 0 0 0
0 0 0 0 0 0 0 0 0 0 0 0 0 0 0 0 0 0 0 0 0 0 0 0 0 0 0 0 0 0 0 0 0 0 0 0 0 0 0 0 0 0 0 0
0 0 0 0 0 0 0 0 0 0 0 0 0 0 0 0 0 0 0 0 0 0 0 0 0 0 0 0 0 0 0 0 0 0 0 0 0 0 0 0 0 0 0 0
0 0 0 0 0 0 0 0 0 0 0 0 0 0 0 0 0 0 0 0 0 0 0 0 0 0 0 0 0 0 0 0 0 0 0 0 0 0 0 0 0 0 0 0
0 0 0 0 0 0 0 0 0 0 0 0 0 0 0 0 0 0 0 0 0 0 0 0 0 0 0 0 0 0 0 0 0 0 0 0 0 0 0 0 0 0 0 0
0 0 0 0 0 0 0 0 0 0 0 0 0 0 0 0 0 0 0 0 0 0 0 0 0 0 0 0 0 0 0 0 0 0 0 0 0 0 0 0 0 0 0 0
0 0 0 0 0 0 0 0 0 0 0 0 0 0 0 0 0 0 0 0 0 0 0 0 0 0 0 0 0 0 0 0 0 0 0 0 0 0 0 0 0 0 0 0
0 0 0 0 0 0 0 0 0 0 0 0 0 0 0 0 0 0 0 0 0 0 0 0 0 0 0 0 0 0 0 0 0 0 0 0 0 0 0 0 0 0 0 0
0 0 0 0 0 0 0 0 0 0 0 0 0 0 0 0 0 0 0 0 0 0 0 0 0 0 0 0 0 0 0 0 0 0 0 0 0 0 0 0 0 0 0 0
0 0 0 0 0 0 0 0 0 0 0 0 0 0 0 0 0 0 0 0 0 0 0 0 0 0 0 0 0 0 0 0 0 0 0 0 0 0 0 0 0 0 0 0
0 0 0 0 0 0 0 0 0 0 0 0 0 0 0 0 0 0 0 0 0 0 0 0 0 0 0 0 0 0 0 0 0 0 0 0 0 0 0 0 0 0 0 0
0 0 0 0 0 0 0 0 0 0 0 0 0 0 0 0 0 0 0 0 0 0 0 0 0 0 0 0 0 0 0 0 0 0 0 0 0 0 0 0 0 0 0 0
0 0 0 0 0 0 0 0 0 0 0 0 0 0 0 0 0 0 0 0 0 0 0 0 0 0 0 0 0 0 0 0 0 0 0 0 0 0 0 0 0 0 0 0
0 0 0 0 0 0 0 0 0 0 0 0 0 0 0 0 0 0 0 0 0 0 0 0 0 0 0 0 0 0 0 0 0 0 0 0 0 0 0 0 0 0 0 0
0 0 0 0 0 0 0 0 0 0 0 0 0 0 0 0 0 0 0 0 0 0 0 0 0 0 0 0 0 0 0 0 0 0 0 0 0 0 0 0 0 0 0 0
0 0 0 0 0 0 0 0 0 0 0 0 0 0 0 0 0 0 0 0 0 0 0 0 0 0 0 0 0 0 0 0 0 0 0 0 0 0 0 0 0 0 0 0
0 0 0 0 0 0 0 0 0 0 0 0 0 0 0 0 0 0 0 0 0 0 0 0 0 0 0 0 0 0 0 0 0 0 0 0 0 0 0 0 0 0 0 0
0 0 0 0 0 0 0 0 0 0 0 0 0 0 0 0 0 0 0 0 0 0 0 0 0 0 0 0 0 0 0 0 0 0 0 0 0 0 0 0 0 0 0 0
0 0 0 0 0 0 0 0 0 0 0 0 0 0 0 0 0 0 0 0 0 0 0 0 0 0 0 0 0 0 0 0 0 0 0 0 0 0 0 0 0 0 0 0
0 0 0 0 0 0 0 0 0 0 0 0 0 0 0 0 0 0 0 0 0 0 0 0 0 0 0 0 0 0 0 0 0 0 0 0 0 0 0 0 0 0 0 0
0 0 0 0 0 0 0 0 0 0 0 0 0 0 0 0 0 0 0 0 0 0 0 0 0 0 0 0 0 0 0 0 0 0 0 0 0 0 0 0 0 0 0 0
Height
5644 5645 5644 5646 5646 5646 5646 5646 5647 5650 5651 5651 5652 5655 5658 5659 5661 5664 5666 5668 5671 5674 5676 5679 5683 5686 5690 5693 5697 5701 5704 5707 5711 5714 5717 5720 5723 5726 5729 5732 5735 5738 5740 5743
5633 5632 5635 5634 5634 5633 5633 5634 5636 5638 5639 5639 5641 5643 5646 5648 5650 5653 5655 5657 5659 5662 5664 5668 5671 5675 5678 5682 5686 5689 5693 5696 5700 5702 5705 5709 5712 5715 5718 5721 5724 5727 5730 5733
5620 5623 5623 5622 5622 5621 5622 5623 5625 5626 5627 5627 5628 5631 5635 5638 5639 5641 5644 5646 5648 5651 5653 5656 5660 5663 5666 5670 5674 5677 5681 5684 5688 5691 5694 5698 5701 5704 5707 5710 5713 5717 5720 5723
5608 5610 5609 5609 5609 5610 5610 5613 5613 5613 5613 5614 5616 5617 5624 5626 5628 5631 5633 5635 5637 5640 5642 5645 5648 5651 5655 5658 5662 5665 5669 5672 5676 5679 5683 5686 5689 5692 5695 5698 5702 5705 5708 5711
5597 5598 5597 5596 5598 5598 5599 5600 5600 5601 5600 5601 5603 5604 5611 5615 5617 5621 5623 5625 5626 5629 5631 5634 5636 5640 5643 5646 5650 5653 5657 5660 5664 5667 5671 5674 5677 5680 5682 5685 5689 5692 5696 5699
5585 5585 5584 5585 5586 5586 5587 5588 5588 5588 5588 5589 5593 5594 5598 5603 5607 5610 5612 5614 5615 5617 5620 5622 5625 5628 5631 5634 5638 5641 5645 5648 5652 5655 5658 5661 5664 5667 5670 5673 5676 5679 5683 5687
5574 5573 5573 5574 5574 5575 5576 5577 5577 5576 5576 5579 5584 5583 5587 5592 5595 5598 5600 5602 5604 5606 5609 5611 5614 5617 5620 5623 5627 5630 5633 5636 5640 5643 5646 5648 5651 5654 5657 5660 5663 5666 5670 5673
5562 5563 5563 5563 5564 5564 5565 5566 5567 5566 5567 5570 5572 5573 5579 5582 5583 5586 5588 5590 5593 5595 5598 5601 5603 5606 5609 5612 5615 5618 5621 5625 5628 5631 5633 5636 5638 5641 5644 5647 5650 5654 5657 5661
5553 5554 5554 5553 5553 5554 5555 5556 5558 5558 5557 5559 5561 5565 5568 5570 5572 5574 5577 5579 5581 5584 5587 5589 5592 5595 5598 5601 5604 5607 5610 5613 5616 5618 5621 5623 5626 5629 5631 5635 5638 5641 5644 5648
5544 5544 5545 5544 5545 5545 5546 5547 5548 5547 5547 5548 5551 5555 5558 5560 5562 5564 5566 5568 5570 5573 5575 5578 5581 5584 5587 5590 5592 5595 5598 5601 5604 5606 5609 5611 5614 5617 5619 5622 5625 5628 5632 5635
5537 5536 5537 5536 5536 5536 5537 5538 5537 5538 5538 5540 5541 5547 5549 5550 5551 5553 5555 5557 5559 5561 5564 5566 5569 5572 5575 5577 5580 5583 5586 5589 5591 5594 5597 5599 5602 5604 5607 5609 5612 5615 5618 5622
5529 5528 5528 5528 5528 5527 5527 5528 5529 5529 5529 5530 5532 5538 5538 5540 5541 5542 5544 5546 5548 5550 5553 5555 5557 5560 5563 5565 5568 5571 5574 5576 5579 5582 5584 5587 5589 5592 5594 5597 5600 5602 5605 5609
5522 5521 5520 5520 5522 5520 5519 5519 5519 5520 5520 5520 5522 5529 5528 5529 5530 5532 5534 5535 5537 5539 5541 5543 5546 5548 5551 5553 5556 5559 5561 5564 5566 5569 5571 5574 5577 5579 5582 5584 5587 5590 5593 5596
5515 5514 5514 5513 5512 5511 5511 5511 5511 5510 5510 5511 5513 5516 5519 5519 5520 5521 5523 5525 5527 5528 5530 5532 5534 5536 5538 5541 5543 5546 5548 5551 5553 5556 5558 5561 5564 5566 5569 5571 5574 5577 5580 5583
5508 5507 5506 5505 5504 5503 5502 5503 5502 5502 5502 5502 5504 5505 5508 5508 5509 5511 5512 5514 5516 5518 5519 5521 5522 5524 5526 5528 5531 5533 5535 5537 5540 5542 5545 5548 5550 5553 5555 5558 5561 5564 5567 5569
5502 5500 5499 5498 5496 5494 5494 5494 5494 5493 5493 5493 5494 5496 5497 5498 5499 5500 5502 5503 5505 5506 5508 5510 5511 5513 5515 5516 5518 5520 5522 5524 5527 5529 5532 5534 5537 5539 5542 5545 5547 5550 5553 5556
5496 5494 5492 5490 5489 5486 5486 5487 5486 5485 5484 5484 5484 5488 5488 5488 5489 5491 5492 5493 5495 5496 5498 5499 5501 5502 5503 5505 5506 5508 5510 5512 5514 5516 5518 5521 5523 5526 5529 5531 5534 5536 5539 5542
5490 5487 5484 5482 5482 5479 5482 5479 5478 5477 5477 5476 5476 5478 5478 5479 5480 5481 5482 5483 5484 5486 5487 5489 5490 5491 5492 5493 5494 5496 5498 5500 5501 5503 5505 5507 5510 5512 5515 5518 5520 5523 5525 5528
5483 5481 5478 5475 5473 5471 5473 5472 5470 5469 5470 5470 5469 5470 5470 5470 5471 5472 5473 5474 5475 5476 5477 5478 5479 5480 5481 5482 5483 5484 5486 5487 5489 5491 5492 5494 5497 5499 5502 5504 5506 5508 5511 5513
5477 5474 5472 5468 5465 5464 5467 5465 5462 5462 5463 5463 5462 5463 5462 5462 5463 5465 5465 5464 5465 5466 5467 5468 5468 5469 5470 5470 5471 5472 5474 5475 5477 5478 5480 5481 5483 5486 5488 5491 5492 5494 5496 5498
5470 5467 5465 5461 5458 5457 5458 5456 5455 5456 5457 5456 5454 5454 5454 5453 5455 5456 5455 5455 5456 5456 5457 5457 5458 5458 5459 5459 5459 5460 5462 5463 5464 5465 5467 5469 5470 5473 5475 5477 5478 5480 5482 5484
5462 5460 5457 5454 5452 5453 5451 5449 5449 5448 5447 5447 5446 5446 5445 5445 5445 5445 5446 5446 5446 5447 5447 5447 5447 5448 5448 5448 5448 5449 5450 5451 5451 5453 5454 5456 5458 5459 5461 5463 5465 5466 5468 5469
5455 5453 5450 5448 5448 5445 5443 5442 5441 5440 5439 5439 5438 5438 5437 5437 5437 5436 5437 5437 5437 5437 5437 5437 5437 5437 5437 5437 5437 5438 5438 5439 5440 5441 5442 5444 5445 5447 5448 5450 5452 5453 5454 5456
5449 5445 5442 5440 5439 5437 5436 5435 5434 5433 5432 5431 5430 5430 5429 5429 5428 5428 5428 5428 5428 5428 5427 5427 5427 5427 5427 5427 5427 5427 5427 5428 5428 5430 5431 5432 5433 5435 5436 5437 5439 5440 5441 5442
5441 5438 5435 5433 5432 5430 5429 5428 5427 5425 5424 5423 5422 5421 5421 5420 5420 5419 5419 5419 5419 5418 5418 5418 5417 5417 5417 5417 5417 5417 5417 5417 5418 5419 5420 5421 5422 5423 5424 5425 5426 5427 5429 5429
5434 5431 5428 5426 5425 5423 5422 5421 5419 5418 5417 5416 5415 5414 5413 5412 5411 5411 5410 5410 5409 5409 5408 5408 5408 5407 5407 5407 5407 5407 5407 5407 5408 5408 5409 5409 5410 5411 5412 5413 5414 5414 5415 5416
Wind_Speed
40 41 42 43 44 44 44 44 44 43 43 44 44 43 42 43 43 43 43 45 45 46 47 48 48 48 48 47 47 47 47 47 47 46 46 46 45 45 44 43 43 41 41 41
40 41 41 42 43 44 45 45 44 44 44 45 44 43 43 43 43 43 43 44 45 46 47 48 48 49 49 48 47 48 48 48 48 47 47 47 47 47 47 46 45 45 44 43
41 41 41 42 43 44 45 45 45 45 46 47 46 46 44 44 44 44 43 43 45 45 46 47 49 49 49 48 48 48 49 50 49 48 49 49 50 49 49 49 48 46 46 46
40 40 41 42 43 44 45 44 45 46 46 48 48 48 45 44 44 43 43 43 43 44 45 46 48 49 49 48 47 48 49 50 50 50 50 50 49 50 50 50 49 49 48 47
39 40 41 43 43 43 44 43 44 45 46 47 47 49 46 45 44 43 42 42 42 43 44 45 46 47 48 48 48 48 48 49 50 50 50 51 51 51 51 51 51 51 51 50
38 38 40 41 42 42 42 42 43 44 44 46 45 47 47 44 43 43 42 42 42 42 43 43 44 46 46 47 47 47 47 48 49 50 50 51 51 51 52 52 52 52 52 51
36 36 37 38 38 39 40 41 43 44 44 45 42 44 44 42 42 42 42 42 42 42 43 43 43 44 44 44 45 46 47 47 48 49 49 50 51 52 52 52 53 53 53 53
35 34 34 35 36 36 38 39 40 42 44 44 42 43 41 40 41 41 42 43 43 43 43 43 43 44 43 43 44 44 45 47 47 48 48 48 49 50 50 51 51 52 53 53
33 33 32 33 34 35 36 37 38 41 42 43 43 41 40 39 40 40 42 43 43 43 43 44 44 44 44 43 43 44 45 47 48 48 48 48 48 49 50 51 51 52 53 53
31 32 30 30 33 34 35 35 36 39 41 42 42 41 39 39 38 39 40 41 42 43 43 43 44 45 45 44 44 44 45 47 48 48 49 48 47 48 49 50 51 52 53 53
31 32 30 30 30 33 34 34 36 38 41 42 42 42 40 39 39 39 39 41 42 42 42 43 44 44 45 45 45 45 45 46 47 48 49 48 48 48 49 49 50 51 52 53
29 31 31 30 29 30 32 33 35 37 39 41 42 41 40 40 40 40 40 40 41 41 41 42 43 44 44 45 45 46 47 46 46 47 48 49 49 49 50 50 51 51 51 52
28 30 31 30 30 30 30 31 33 36 38 39 41 40 39 40 40 40 40 39 39 40 41 41 42 43 44 45 45 46 47 47 47 47 48 49 50 50 51 51 51 51 52 52
28 28 29 29 30 31 31 31 33 35 36 38 39 38 38 39 40 40 39 38 38 38 39 40 42 43 44 45 46 46 47 48 48 48 49 50 51 51 52 52 51 52 52 52
28 28 28 28 29 29 30 31 33 34 35 37 36 36 36 38 39 40 39 38 37 37 38 39 40 41 42 43 45 46 47 48 48 49 50 50 51 52 52 52 53 53 53 53
27 28 28 28 28 29 30 30 31 32 34 35 36 36 35 35 37 38 38 37 36 37 37 37 38 39 39 40 42 44 45 46 47 48 49 50 51 51 52 52 53 53 54 54
26 27 28 28 27 28 29 28 29 30 30 32 34 34 34 34 34 34 35 35 35 35 35 36 37 38 39 40 41 42 43 45 46 47 48 49 49 50 51 52 52 52 53 53
26 26 27 28 28 28 27 27 27 28 28 28 30 31 32 33 33 33 34 35 35 35 36 36 37 38 38 40 41 42 43 44 45 46 47 48 48 49 50 50 51 51 52 53
26 27 28 28 29 28 26 26 26 27 26 27 28 29 30 30 32 32 33 34 35 36 36 36 37 38 39 40 41 42 43 43 44 45 46 47 47 48 49 50 51 51 52 53
26 27 28 29 29 29 26 25 26 26 26 26 28 28 28 29 31 31 32 33 34 35 36 37 38 39 39 40 41 42 43 43 44 45 45 46 47 47 48 48 49 51 52 52
27 28 28 28 28 27 25 25 25 25 25 25 26 27 28 29 30 31 31 32 33 34 35 35 36 37 38 39 39 40 41 41 43 44 44 44 45 46 46 46 47 48 49 50
28 29 28 29 28 26 25 24 24 25 25 26 26 27 28 29 29 30 31 32 32 33 34 35 36 36 37 38 38 38 39 40 41 41 42 43 43 43 44 45 45 46 46 47
28 28 28 28 27 26 24 24 24 24 25 25 26 27 27 28 29 30 31 31 32 33 33 34 35 36 36 36 36 37 37 38 39 39 40 41 41 42 43 43 43 44 44 45
27 27 27 26 25 25 24 24 25 25 25 25 26 26 27 28 28 29 30 31 31 32 32 32 33 33 33 34 34 35 36 36 36 37 38 39 40 41 41 42 41 42 42 43
27 27 27 26 25 26 25 24 24 24 24 24 25 25 26 27 27 28 29 30 31 31 31 32 32 32 32 32 32 32 33 34 35 36 36 38 38 39 40 40 41 41 42 43
25 26 26 25 24 25 25 24 24 24 24 24 25 25 26 27 27 28 28 29 30 31 31 31 31 32 32 31 31 31 32 32 33 34 34 36 37 38 39 40 40 41 42 43
Wind_Direction
270 267 266 266 266 266 265 264 263 261 260 260 260 259 257 255 253 251 250 250 249 249 247 246 246 246 244 245 245 246 246 245 246 246 246 246 247 248 249 249 249 248 248 248
271 268 267 266 265 265 264 263 262 261 260 261 260 258 256 255 253 252 250 250 250 249 247 247 246 246 245 246 245 245 246 245 245 246 246 247 248 249 248 248 248 248 249 249
272 271 267 264 264 264 263 263 262 262 261 261 261 257 255 254 254 253 252 251 251 250 249 248 247 246 246 246 246 245 246 245 244 245 246 247 248 249 249 248 248 248 249 250
273 270 267 264 263 263 263 263 262 261 261 260 260 259 254 255 255 255 254 253 253 252 250 250 248 247 247 247 247 246 245 246 245 245 246 247 248 248 249 249 249 249 249 250
273 270 267 265 264 264 264 263 262 261 260 260 259 259 256 255 255 255 256 254 253 252 250 250 249 248 248 247 248 247 246 246 247 246 247 248 248 249 249 249 249 250 249 250
272 270 269 268 264 263 262 262 261 260 259 259 259 260 258 256 256 256 256 255 254 252 250 249 249 248 247 247 248 248 248 247 247 247 248 248 249 248 248 248 248 248 249 250
272 269 267 266 264 261 261 260 260 259 259 260 260 260 260 258 257 256 255 255 255 253 251 250 249 249 248 248 249 249 249 249 248 248 249 250 249 248 247 247 248 248 249 250
276 272 270 266 264 262 260 258 259 260 261 261 260 260 261 260 258 256 255 255 255 254 252 250 249 249 249 249 249 250 249 249 249 249 250 250 250 249 249 248 249 249 250 251
281 275 274 270 265 263 261 257 258 260 262 262 261 261 261 261 260 257 255 255 255 255 253 252 251 250 250 250 251 251 250 249 249 249 250 251 251 251 250 250 249 250 251 250
282 278 276 273 267 263 262 261 258 258 260 263 262 261 260 260 261 259 257 256 256 255 254 253 252 251 250 250 251 251 251 250 250 250 250 251 251 251 252 252 252 251 250 250
283 279 276 274 270 265 261 260 259 259 259 261 262 262 261 262 261 260 259 257 256 256 254 253 252 251 251 251 251 251 251 251 251 251 251 251 251 251 251 251 252 252 251 251
285 281 278 274 273 267 264 262 260 260 260 261 262 263 262 262 261 261 260 258 256 256 255 253 252 251 251 251 250 250 250 251 251 251 251 251 252 251 251 252 251 251 251 251
288 285 282 277 274 271 267 264 263 263 262 262 262 262 262 262 261 260 259 258 257 255 255 253 252 251 251 251 251 250 250 250 250 251 251 251 251 251 251 252 252 252 252 253
289 285 283 283 280 274 270 267 265 264 264 263 262 261 260 260 261 260 259 258 257 256 255 253 252 252 252 252 252 252 251 251 251 251 251 251 250 251 252 252 252 252 253 254
289 287 285 284 281 276 273 270 268 266 265 264 263 262 261 259 260 260 260 260 259 256 255 254 253 253 253 253 254 254 254 253 252 252 252 252 251 251 252 253 253 252 253 254
291 290 288 286 284 279 275 272 270 269 268 266 263 261 260 260 260 260 259 260 260 257 256 255 254 254 254 255 254 254 254 254 254 254 254 253 253 252 253 253 253 253 254 255
294 294 292 290 288 284 279 276 272 270 269 268 265 262 260 260 260 259 259 259 260 259 258 258 257 256 255 255 255 254 254 254 254 255 255 255 254 254 254 255 255 255 255 256
295 296 295 293 291 287 286 281 275 271 270 269 266 263 262 261 260 259 258 257 258 258 258 257 257 257 257 256 256 256 255 255 255 255 255 255 255 255 255 255 256 256 257 257
296 297 296 294 293 290 287 283 278 274 270 269 267 264 263 262 260 259 259 259 260 259 258 259 258 259 259 259 258 257 257 257 257 256 257 256 255 255 255 256 257 257 258 258
298 297 297 296 294 293 291 285 280 276 272 269 269 267 265 263 261 259 261 261 260 261 260 261 260 261 261 261 261 260 259 259 258 258 258 256 255 256 257 258 258 258 259 259
299 298 296 295 293 292 291 287 281 277 276 273 272 270 268 266 265 263 262 262 262 261 262 262 262 263 263 263 263 262 261 260 260 260 259 257 256 256 257 258 258 259 259 259
299 298 296 294 293 291 289 287 282 278 276 274 273 272 270 268 267 266 265 265 265 264 264 264 264 265 265 264 263 262 262 261 261 260 259 258 257 257 257 258 258 259 260 260
299 299 298 295 292 289 288 286 283 280 278 276 275 274 273 271 269 268 267 266 266 266 265 265 266 267 267 266 264 263 262 261 261 260 259 259 258 258 258 258 259 259 260 261
298 298 296 294 291 288 285 284 283 281 280 278 276 275 275 274 272 270 269 268 269 268 267 267 267 267 267 267 266 264 263 262 262 261 260 259 258 258 259 259 259 260 261 261
298 296 295 292 289 286 284 283 283 282 280 278 277 276 275 275 276 274 273 272 272 270 269 269 268 268 267 267 268 267 265 264 264 263 261 260 260 259 259 260 260 261 262 262
299 298 297 294 291 288 285 283 282 281 280 279 279 279 277 276 276 276 276 275 273 272 271 270 269 269 268 268 268 268 266 265 265 264 264 263 262 260 260 260 261 262 263 264